Regional Weather Roundup
Issued by NWS Charleston, SC

Current Version | Previous Version | Graphics & Text | Print | Product List | Glossary On
Versions: 1 2 3 4 5 6 7 8 9 10 11 12 13 14 15 16 17 18 19 20 21 22 23 24 25 26 27 28 29 30 31 32 33 34 35 36 37 38 39 40 41 42 43 44 45 46 47 48 49 50
000 ASUS42 KCHS 301912 RWRCHS REGIONAL WEATHER ROUNDUP NATIONAL WEATHER SERVICE CHARLESTON SC 300 PM EDT THU MAR 30 2017 NOTE: "FAIR" INDICATES FEW OR NO CLOUDS BELOW 12,000 FEET WITH NO SIGNIFICANT WEATHER AND/OR OBSTRUCTIONS TO VISIBILITY. NOT ALL STATIONS ARE QUALITY CONTROLLED. USE DATA WITH CAUTION... ESPECIALLY DEWPOINT OBSERVATIONS. SCZ027-030-031-034>040-042>050-302000- ...SOUTHEAST SOUTH CAROLINA... CITY SKY/WX TMP DP RH WIND PRES REMARKS N CHARLESTON PTSUNNY 72 65 78 SE13 30.01F WATERFRONT PRK N/A 69 66 90 E10 30.01F JOHNS ISLAND LGT RAIN 68 68 100 E9 30.02F PINOPOLIS N/A 72 64 78 SE8G15 29.95F MONCKS CORNER MOCLDY 73 63 68 SE13G18 30.01F SUMMERVILLE MOCLDY 73 63 68 E6G16 30.01F BEAUFORT MCAS CLOUDY 76 69 79 SE10 29.98F BEAUFORT ARPT MOCLDY 75 68 78 E9 29.97F HILTON HEAD IS MOSUNNY 77 68 73 SE6 29.99F WALTERBORO CLOUDY 73 64 73 SE10G18 29.99F ALLENDALE MOCLDY 72 66 83 SE7 29.96F ...SOUTHERN MIDLANDS AND PEE DEE... CITY SKY/WX TMP DP RH WIND PRES REMARKS GEORGETOWN CLOUDY 70 59 68 E9G17 30.05F KINGSTREE MOCLDY 75 57 53 E21 30.01F ORANGEBURG PTSUNNY 77 62 59 SE14G25 29.94F THUNDER BARNWELL FAIR 77 66 69 SE17 29.96S AIKEN MOCLDY 77 59 53 SE13 29.97F MANNING MOCLDY 73 61 64 S9G16 29.99F COLUMBIA TSTM 75 62 64 W21G31 29.95S SUMTER MOSUNNY 81 61 51 SE15 29.94F FLORENCE CLOUDY 75 59 57 SE15 30.01F MYRTLE BEACH MOSUNNY 68 57 68 E17 30.07 N MYRTLE BEACH SUNNY 70 57 63 E16G25 30.05F $$ GAZ063-065-086>088-099>101-113>116-118-119-134>141-150-302000- ...SOUTHEAST GEORGIA... CITY SKY/WX TMP DP RH WIND PRES REMARKS SAVANNAH ARPT LGT RAIN 73 63 70 CALM 29.96F HUNTER AAF MOSUNNY 75 68 80 E3 29.94F FORT STEWART SUNNY 78 64 62 NE7 29.92F STATESBORO PTSUNNY 69 69 100 S7 29.96F SYLVANIA CLOUDY N/A N/A N/A S3 29.98F CLAXTON FAIR N/A N/A N/A NE7 29.95F ...CSRA...CENTRAL AND FAR SOUTHEAST GEORGIA... CITY SKY/WX TMP DP RH WIND PRES REMARKS THOMSON LGT RAIN 76 63 63 W7 29.98F AUGUSTA-BUSH PTSUNNY 78 64 61 S12 29.92F AUGUSTA-DANIEL PTSUNNY 79 61 53 S10 29.94F SWAINSBORO FAIR 81 59 47 SE10 29.95F VIDALIA MOSUNNY 82 61 47 SE5 29.94F EASTMAN MOCLDY 83 33 16 W5 29.95F HAZLEHURST FAIR 85 57 38 S5 29.92F ALMA PTSUNNY 85 56 37 S5 29.92F WAYCROSS MOSUNNY 90 58 34 W7 29.92F JESUP FAIR 82 59 44 SE5 29.92F BAXLEY PTSUNNY 86 61 42 SW8 29.92F BRUNSWICK SUNNY 81 68 65 SE13 29.94F SAINT SIMONS SUNNY 77 65 66 SE10 29.94F $$ SCZ027-028-034-036>038-045-046-048>050-GAZ119-141-302000- ...LAKE AND SUPPLEMENTAL COASTAL OBSERVATIONS... STATION/POSITION TIME TEMP WIND PRES WAVE SWELL AIR SEA DIR/SP/G HT/PER HT/PER/DIR (UTC) (F) (DEG/KT/KT) (MB) (FT/S) (FT/S/D) WINYAH BAY NOT AVBL LAKE MURRAY 1820 71 300/ 10/ 18 1014.2 ACE BASIN NERRS 1745 75 110/ 6 1016.0 FORT PULASKI 1848 75 67 190/ 5/ 10 1015.3F SAPELO ISLAND 1800 77 130/ 5 1015.0 $$ ANZ835-935-AMZ111-154-330-350-352-354-370-450-454-472-302000- ...C-MAN AND BUOY OBSERVATIONS... STATION/POSITION TIME TEMP WIND PRES WAVE SWELL AIR SEA DIR/SP/G HT/PER HT/PER/DIR (UTC) (F) (DEG/KT/KT) (MB) (FT/S) (FT/S/D) BUOY 41004 1750 70 71 110/ 10/ 16 1016.9 5/ 9 5/100/ 9 BUOY 41008 1750 69 67 150/ 6/ 8 1015.6 3/10 3/110/10 FOLLY BEACH CMAN 1800 67 80/ 11/ 13 1017.5F CAPERS NEARSHORE NOT AVBL FRIPP NEARSHORE 1808 67 65 90/ 8/ 12 1015.8F STATION/POSITION TIME TEMP WIND PRES WAVE SWELL AIR SEA DIR/SP/G HT/PER HT/PER/DIR (UTC) (F) (DEG/KT/KT) (MB) (FT/S) (FT/S/D) 5E ST. MARYS GA 1830 69 N/A 3/11 2/100/11 FRYING PAN BUOY 1850 71 74 100/ 17/ 21 1017.9F 4/ 9 3/100/ 9 BUOY 41025 1850 67 77 140/ 8/ 12 1019.9F 6/ 8 5/ 40/ 8 CAPE LOOKOUT NC 1800 62 40/ 16/ 17 1020.4F BUOY 41002 1850 67 72 70/ 12/ 16 1019.5F 6/10 5/ 90/10 BUOY 41010 NOT AVBL ST AUGUSTINE FL 1900 71 69 140/ 13/ 14 1015.1F $$

USA.gov is the U.S. government's official web portal to all federal, state and local government web resources and services.